Cloud_Cover
64 56 48 48 80 80 76 80 88 80 76 80 80 80 80 80 80 88 88 80 80 88 92 92 92 92 88 88 92 92 92 92 92 92 92 92 92 92 92 80 76 80 88 92 92 92 92 92 92 92 92 92 92 92 92 92 92 92 92 92 92 92 92 92 92 92 92 92 92
64 68 88 88 80 76 76 88 92 92 88 92 92 92 92 92 92 92 92 92 92 92 92 92 92 92 88 88 92 92 92 92 92 92 92 92 92 92 92 92 92 92 92 92 92 92 92 92 92 92 92 92 92 92 92 92 92 92 92 92 92 92 92 92 92 92 92 92 92
88 88 92 92 88 76 68 92 92 92 92 92 92 92 92 88 92 92 92 92 92 92 92 92 92 92 92 92 92 92 92 92 92 92 92 92 92 92 92 92 92 92 92 92 92 92 92 92 92 92 92 92 92 92 92 92 92 92 92 92 92 92 92 92 92 92 92 92 92
92 92 92 92 88 80 76 88 92 92 92 92 92 88 80 88 88 92 92 92 92 92 92 92 88 88 80 88 92 92 92 92 92 92 92 92 92 92 92 92 92 92 92 92 92 92 92 92 92 92 92 92 92 92 92 92 92 92 92 92 92 92 92 92 92 92 92 92 92
92 92 92 92 92 92 92 92 92 92 92 92 92 92 92 92 92 92 92 92 92 92 92 88 92 92 92 92 92 92 92 92 92 92 92 92 92 92 92 92 92 92 92 92 92 92 92 92 92 92 92 92 92 92 92 92 92 92 92 92 92 92 92 92 92 92 92 92 92
92 92 92 92 92 92 92 92 92 92 92 92 92 92 92 92 88 92 92 92 92 92 92 92 92 92 92 92 92 92 92 92 92 92 92 92 92 92 92 92 92 92 92 92 92 92 88 80 80 80 88 92 92 92 92 92 92 92 92 92 92 92 92 92 92 92 92 92 92
92 92 92 92 92 92 92 92 92 92 92 88 92 92 92 92 92 92 92 92 92 92 92 92 92 92 92 92 92 92 92 92 92 92 92 92 92 92 92 92 92 92 92 92 88 92 92 92 92 92 92 92 92 92 92 92 92 92 92 92 92 92 92 92 92 92 92 92 92
92 92 92 92 92 92 92 92 92 88 80 92 92 92 92 92 92 92 92 92 92 92 92 92 92 92 92 92 92 92 92 92 92 92 92 92 92 92 92 92 92 92 92 92 92 92 92 92 92 92 92 92 92 92 92 92 92 92 92 92 92 92 92 92 92 92 92 92 92
92 92 92 92 92 92 92 92 92 92 92 92 92 92 92 92 92 92 92 92 92 92 92 92 92 92 92 92 92 92 92 92 92 92 92 92 92 92 92 92 92 92 92 92 92 92 92 92 92 92 92 92 92 92 92 92 92 92 92 92 92 92 92 92 92 92 92 92 92
92 92 92 92 92 92 92 92 92 92 92 92 92 92 92 92 92 92 92 92 92 92 92 92 92 92 92 92 92 92 92 92 92 92 92 92 92 92 92 92 92 92 92 92 92 92 92 92 92 92 92 92 92 92 92 92 92 92 92 92 92 92 92 92 92 92 92 92 92
92 92 92 92 92 92 92 92 92 92 92 92 92 92 92 92 92 92 92 92 92 92 92 92 92 92 92 92 92 92 92 92 92 92 92 92 92 92 92 92 92 92 92 92 92 92 92 92 92 92 92 92 92 92 92 92 92 92 92 92 92 92 92 92 92 92 92 92 92
92 92 92 92 92 92 92 92 92 92 92 92 92 92 92 92 92 92 92 80 92 92 92 92 92 92 92 92 92 92 92 92 92 92 92 92 92 92 92 92 92 92 92 92 92 92 92 92 92 92 92 92 92 92 92 92 92 92 92 92 92 92 92 92 92 92 92 92 92
92 92 92 92 92 92 92 92 92 92 92 92 92 88 80 92 92 92 88 56 88 92 92 92 92 92 92 92 92 92 92 92 92 92 92 92 92 92 92 92 92 92 92 92 92 92 92 92 92 92 92 92 92 92 92 92 92 92 92 92 92 92 92 92 92 92 92 92 92
92 92 92 92 92 92 92 88 80 76 80 92 76 48 48 92 92 92 92 92 92 92 92 92 92 92 92 92 92 92 92 92 92 92 92 92 92 92 92 92 92 92 92 92 92 92 92 92 92 92 92 92 92 92 92 92 92 92 92 92 92 92 92 92 92 92 92 92 92
92 92 92 92 92 92 88 80 68 48 48 88 44 44 64 80 92 92 92 92 92 92 92 92 92 92 92 92 92 92 92 92 92 92 92 92 92 92 92 92 92 88 88 92 92 92 88 88 92 92 92 92 92 92 92 92 92 92 92 92 92 92 92 92 92 92 92 92 92
92 92 92 92 88 88 88 92 88 80 76 92 76 76 80 88 92 92 92 92 92 92 92 92 92 92 92 92 92 92 92 92 92 92 92 88 88 88 88 88 88 80 80 92 92 88 80 88 88 88 92 92 92 92 92 92 92 92 92 92 92 92 92 92 92 92 92 92 92
92 92 92 92 80 88 92 88 92 92 92 92 92 92 92 92 92 92 92 92 92 92 92 92 92 92 92 92 92 92 92 92 92 92 92 88 80 80 80 80 80 80 80 92 88 88 88 92 92 92 92 92 92 92 92 92 92 92 92 92 92 92 92 92 92 92 92 92 92
92 92 92 92 92 92 92 88 92 92 92 92 92 92 92 92 92 92 92 92 92 92 92 92 92 92 92 92 92 92 92 92 92 92 92 88 80 80 80 76 76 76 76 88 88 92 92 88 88 88 92 92 92 92 92 92 92 92 92 92 92 92 92 92 92 92 92 92 92
92 92 92 92 92 92 92 88 92 92 92 92 92 92 92 92 92 92 92 92 88 88 88 88 80 88 92 92 92 92 92 92 92 92 92 92 88 88 80 80 76 76 76 76 80 80 80 80 80 80 88 92 92 92 92 92 92 92 92 92 92 92 92 92 92 92 92 92 92
92 76 64 92 80 88 92 88 92 92 92 92 92 92 92 92 80 80 80 80 80 88 88 88 88 92 92 92 92 92 92 92 88 88 92 92 92 92 92 88 80 80 76 76 80 80 80 80 80 80 80 88 88 92 92 92 92 92 92 92 92 92 92 92 92 92 92 92 92
88 76 56 68 76 88 92 92 92 92 92 92 92 88 80 76 68 68 76 76 80 88 92 92 92 92 92 88 92 92 92 92 92 92 92 88 92 92 92 92 92 88 80 80 80 80 76 76 80 80 80 92 92 92 92 92 92 92 92 92 92 92 92 92 92 92 92 92 92
76 80 88 76 88 92 92 92 92 92 92 80 80 76 68 68 68 76 76 76 88 92 92 92 92 92 92 92 92 92 92 92 92 92 92 92 92 92 92 92 88 88 80 76 76 76 76 76 76 80 88 92 92 92 92 92 92 92 92 92 92 92 92 92 92 92 92 92 92
88 92 92 92 92 92 92 92 92 88 76 68 68 68 68 68 76 80 80 80 88 88 92 92 92 92 92 92 92 92 92 92 92 92 92 92 92 92 92 92 88 80 80 76 80 80 80 88 88 92 92 92 92 92 92 92 92 92 92 92 92 92 88 88 88 80 80 80 80
92 92 92 92 92 92 92 92 80 68 64 64 64 68 76 80 76 80 80 92 92 92 92 92 92 92 92 92 92 92 92 92 92 92 92 92 92 88 88 88 88 80 88 88 92 92 92 92 92 92 92 92 92 92 92 92 88 88 88 88 88 88 80 80 80 76 76 76 76
92 92 92 92 92 92 92 76 68 64 64 64 68 76 76 80 88 92 92 92 92 92 92 92 92 92 92 92 92 92 88 88 88 92 92 92 92 88 88 92 92 92 92 92 92 92 92 92 92 92 88 88 80 80 76 76 76 68 76 88 88 76 64 56 48 48 48 56 44
92 92 92 92 92 88 68 64 56 64 68 76 88 92 92 92 92 92 92 92 92 92 92 92 88 88 88 88 88 88 88 88 92 92 92 92 92 92 92 92 92 92 92 92 92 92 92 92 88 88 88 80 80 80 76 76 76 68 68 68 48 44 44 44 44 44 48 36 36
92 92 92 92 88 76 68 64 76 88 92 92 92 92 92 92 92 92 92 92 92 92 92 92 88 88 88 88 92 92 92 92 92 92 92 88 92 92 92 92 92 92 88 92 92 92 92 88 80 76 76 76 68 68 64 64 56 56 48 44 36 36 36 32 36 36 36 32 36
92 92 92 92 92 92 92 80 92 92 92 92 92 92 92 92 92 92 92 92 88 88 88 88 80 80 88 88 92 92 92 92 92 88 80 80 88 88 88 88 88 88 88 80 80 76 76 64 56 56 48 44 44 44 44 44 44 36 36 36 32 32 32 24 32 32 24 32 36
92 92 92 92 92 92 92 92 92 92 92 92 92 92 92 92 92 92 92 92 92 92 92 88 92 92 88 80 80 80 80 88 88 88 88 88 88 80 80 76 76 76 68 68 68 64 56 32 36 36 36 36 36 36 32 32 32 32 32 32 12 8 8 8 8 8 8 8 8
92 92 92 92 92 92 92 92 92 92 92 92 92 92 92 92 92 92 92 80 88 88 80 88 88 88 88 88 88 88 80 80 68 68 68 64 64 64 64 64 56 56 48 44 32 24 20 12 12 12 12 12 12 12 12 12 12 8 8 0 0 0 8 8 8 8 8 8 12
92 92 92 92 92 92 92 92 92 92 92 92 92 92 92 92 92 92 92 88 88 80 80 80 80 76 68 68 68 68 68 68 64 56 48 44 36 32 32 24 24 24 20 20 20 12 8 8 8 0 0 0 0 0 0 8 8 0 0 8 8 8 8 8 8 8 8 8 8
92 92 92 92 92 92 92 92 92 92 92 92 92 88 88 88 88 80 76 76 68 68 68 64 64 64 56 56 48 48 44 36 32 24 24 24 20 20 20 20 12 12 8 8 8 0 0 0 0 0 0 0 0 0 0 0 0 0 8 12 12 12 12 12 20 20 12 12 12
92 92 92 92 92 92 88 88 88 88 80 80 76 76 68 64 64 64 64 64 56 56 48 44 32 32 24 24 24 20 20 20 12 12 12 12 12 12 12 8 8 8 8 8 8 8 8 8 8 8 8 8 8 8 8 12 12 20 20 20 20 20 20 20 20 20 12 12 0
92 92 92 88 88 88 80 76 68 68 64 64 64 56 56 48 44 36 36 32 20 20 12 12 8 8 8 8 8 8 8 8 8 8 8 8 8 8 8 8 8 8 8 8 8 12 12 12 12 12 12 12 12 12 12 20 20 12 8 8 8 8 8 0 8 8 0 0 0
80 76 76 68 64 64 64 56 48 44 36 32 24 24 20 12 8 8 8 0 0 0 0 0 0 0 0 0 0 0 8 8 8 12 12 12 12 12 8 8 8 8 8 8 8 8 8 12 12 12 12 12 12 12 12 12 12 0 0 0 0 0 0 0 0 0 0 0 0
64 56 48 48 44 36 32 24 20 8 0 0 0 0 0 0 0 0 0 0 0 0 0 0 0 0 8 8 8 8 8 8 8 8 8 8 0 0 0 0 0 0 0 0 0 0 0 0 0 0 0 0 0 0 0 0 0 0 0 0 0 0 0 0 0 0 0 0 0
32 24 24 20 12 0 0 0 0 0 0 0 0 0 0 0 0 0 0 0 0 0 0 0 0 0 0 0 0 0 0 0 0 0 0 0 0 0 0 0 0 0 0 0 0 0 0 0 0 0 0 0 0 0 0 0 0 0 0 0 0 0 0 0 0 0 0 0 0
0 0 0 0 0 0 0 0 0 0 0 0 0 0 0 0 0 0 0 0 0 0 0 0 0 0 0 0 0 0 0 0 0 0 0 0 0 0 0 0 0 0 0 0 0 0 0 0 0 0 0 0 0 0 0 0 0 0 0 0 0 0 0 0 0 0 0 0 0
0 0 0 0 0 0 0 0 0 0 0 0 0 0 0 0 0 0 0 0 0 0 0 0 0 0 0 0 0 0 0 0 0 0 0 0 0 0 0 0 0 0 0 0 0 0 0 0 0 0 0 0 0 0 0 0 0 0 0 0 0 0 0 0 0 8 12 8 24
0 0 0 0 0 0 0 0 0 0 0 0 0 0 0 0 0 0 0 0 0 8 8 8 8 8 8 8 8 8 0 0 0 0 0 0 0 0 0 0 0 0 0 0 0 0 0 0 0 0 8 0 0 0 0 0 0 0 0 0 0 0 0 0 0 32 64 44 48
12 12 12 12 12 12 12 12 8 8 8 8 8 12 12 12 12 12 12 12 12 12 12 12 12 12 12 12 8 8 8 0 0 0 0 0 0 0 0 0 0 0 0 0 0 0 0 0 0 8 20 24 36 44 44 44 36 20 0 0 0 0 8 32 36 64 88 88 76